Location: Christophstal
(48.4679°N, 8.3985°E)
Time: 00:36:22
(UTC+00:00)

Daily predictions for brighter satellites

Satellite Brightness Start Highest point End
(mag) Time Altitude Azimuth Time Altitude Azimuth Time Altitude Azimuth
Cosmos 2227 Rocket 2.2 00:05:20 29° SSW 00:08:21 86° ESE 00:14:04 10° NNE
Cosmos 1892 3.2 00:09:05 34° WSW 00:10:00 43° WNW 00:13:23 10° N
Cosmos 990 Rocket 4.0 00:08:24 32° S 00:10:46 71° ESE 00:15:54 10° NNE
IDEFIX/ARIANE 42P 4.4 00:07:00 10° NE 00:10:57 21° E 00:14:28 12° SE
Cosmos 332 Rocket 3.9 00:09:47 30° SW 00:12:12 71° WNW 00:17:06 10° NNE
SL-12 R/B(2) 4.4 00:09:27 24° SSW 00:14:46 71° ESE 00:24:27 10° NE
CENTAUR R/B 2.5 00:12:18 29° SSW 00:15:23 67° SE 00:22:22 10° NE
CZ-2C R/B 4.5 00:11:58 10° ESE 00:16:20 27° ENE 00:20:47 10° N
CZ-2D R/B 4.2 00:14:48 10° NE 00:18:24 18° E 00:21:57 10° SE
GEOS 3 Rocket 3.6 00:13:39 10° NE 00:18:51 84° NW 00:22:02 24° SW
Meteor 1-21 Rocket 4.3 00:18:17 28° S 00:21:29 76° E 00:27:12 10° NNE
H-2A R/B 3.0 00:18:02 10° N 00:22:00 37° WNW 00:24:02 23° WSW
Cosmos 1975 Rocket 3.5 00:21:39 28° SSE 00:23:40 52° E 00:27:57 10° NNE
Cosmos 1538 Rocket 3.9 00:19:04 10° NNW 00:24:16 74° WSW 00:27:12 26° S
SL-4 R/B 2.9 00:23:08 10° W 00:26:24 30° SW 00:26:24 30° SW
Cosmos 2074 Rocket 4.4 00:24:31 24° SW 00:28:11 54° WNW 00:34:18 10° N
Cosmos 2297 Rocket 3.2 00:24:23 15° WSW 00:28:46 41° NW 00:34:07 10° NNE
Cosmos 2219 3.2 00:27:36 28° SSW 00:30:39 74° ESE 00:36:16 10° NNE
Cosmos 2341 Rocket 4.4 00:28:16 21° SSE 00:32:25 57° E 00:38:30 10° NNE
Cosmos 2084 Rocket 3.9 00:29:51 21° WSW 00:32:32 54° NW 00:36:36 10° NE
Cosmos 1455 Rocket 3.0 00:31:01 10° NNW 00:35:27 76° W 00:37:36 30° S
Aureole 1 Rocket 2.7 00:38:34 37° S 00:39:55 77° ESE 00:44:18 10° NNE
Cosmos 1825 3.8 00:42:47 16° W 00:44:02 20° WNW 00:46:36 10° NNW
Cosmos 372 Rocket 4.3 00:42:35 25° S 00:45:32 57° ESE 00:50:40 10° NNE
ADEOS II 4.0 00:42:11 10° NE 00:46:05 21° E 00:49:57 10° SE
Meteor 2-1 Rocket 4.3 00:42:56 10° NNW 00:48:55 88° E 00:53:19 18° S
Cosmos 923 Rocket 4.0 00:47:03 10° NNW 00:52:22 88° ENE 00:56:51 14° SSE
Cosmos 1025 Rocket 3.8 00:50:34 25° SW 00:52:38 41° WNW 00:56:45 10° N
CRYOSAT 2 4.4 00:50:23 10° N 00:55:17 70° W 00:58:05 25° SSW
BREEZE-M DEB (TANK) 2.3 00:53:59 10° WNW 00:58:35 37° SW 00:58:59 35° SSW
Resurs 1-4 Rocket 3.1 00:54:05 10° NNE 00:59:02 40° E 01:03:09 14° SSE
NOSS 3-2 (A) 3.2 00:56:57 23° SW 01:00:19 84° SE 01:06:35 10° NE
Cosmos 1937 Rocket 3.7 00:58:06 23° S 01:01:22 67° ESE 01:06:35 10° NNE
Cosmos 1606 2.4 00:58:32 10° N 01:02:07 88° ENE 01:04:04 26° S
Cosmos 2263 Rocket 2.1 00:58:49 24° SSW 01:02:21 90° ESE 01:07:57 10° NNE
CZ-4C R/B 3.8 00:59:34 10° W 01:04:00 31° NNW 01:09:27 10° NE
Cosmos 1898 Rocket 3.4 01:01:19 24° SSW 01:04:29 87° WNW 01:09:42 10° NNE
NOSS 3-2 (C) 3.8 01:03:08 21° S 01:06:19 46° ESE 01:12:08 10° NE
Orbus 7S? 2.9 01:04:36 10° NW 01:07:19 78° NE 01:11:21 10° ESE
MOZ.5/SAFIR/RUBIN 5/SL-8 3.7 01:05:48 21° S 01:08:51 68° WSW 01:13:29 10° NNW
Cosmos 2218 Rocket 4.0 01:04:28 19° S 01:09:05 82° E 01:15:18 10° N
Helios 1A Rocket 3.6 01:12:04 25° SW 01:13:27 34° W 01:16:57 10° NNW
BlueWalker 3 3.3 01:10:52 10° WNW 01:14:23 38° N 01:17:56 10° ENE
Cosmos 2366 rocket 4.0 01:11:40 19° S 01:16:21 86° WNW 01:22:37 10° N
Cosmos 1461 2.8 01:14:31 26° SSW 01:16:36 64° SE 01:20:28 10° NE
Cosmos 1844 Rocket 4.0 01:17:43 10° SSE 01:22:24 30° ESE 01:27:12 10° NE
BREEZE-M DEB (TANK) 2.7 01:25:57 24° S 01:25:57 24° S 01:27:59 10° SE
MSX 3.9 01:22:54 10° NNE 01:28:40 78° ESE 01:33:23 16° S
Cosmos 1680 Rocket 3.6 01:29:32 10° NNW 01:34:38 56° WSW 01:39:25 11° S
ALOS 3.8 01:31:03 10° NE 01:35:05 29° E 01:39:06 10° SSE
Cosmos 1818 3.7 01:30:33 10° NW 01:35:52 52° WSW 01:41:07 10° SSE
Cosmos 2112 Rocket 4.0 01:31:39 10° NNW 01:36:47 63° WSW 01:41:53 10° S
SL-16 R/B 3.4 01:33:41 10° NW 01:38:13 25° WSW 01:41:09 16° SW
SL-16 R/B 3.1 01:32:20 10° SSE 01:38:29 62° ENE 01:44:38 10° N
Cosmos 1603 3.8 01:37:40 10° NNW 01:43:28 85° ENE 01:49:12 10° SSE
Cosmos 1869 4.2 01:41:31 10° NNW 01:44:45 29° W 01:46:40 18° SW
Cosmos 1544 Rocket 4.3 01:42:50 10° NNW 01:46:57 37° W 01:49:57 16° SSW
USA 234 4.1 01:41:12 10° E 01:47:33 56° NNE 01:53:55 10° NW
COSMOS 2441 4.4 01:43:15 10° NNE 01:48:05 78° ESE 01:52:26 13° S
Meteor 1-28 Rocket 3.5 01:45:15 10° SSE 01:48:44 61° ENE 01:52:15 10° N
Cosmos 2082 4.4 01:45:35 13° SW 01:50:18 46° NW 01:55:44 10° NNE
IDEFIX/ARIANE 42P 2.8 01:45:42 10° N 01:50:53 61° WNW 01:55:13 15° SSW
Cosmos 2228 3.5 01:48:26 10° NNW 01:52:33 42° W 01:55:49 15° SSW
Cosmos 2227 Rocket 4.1 01:48:48 10° W 01:53:09 22° NW 01:57:31 10° N
Cosmos 1943 3.3 01:48:08 10° NW 01:53:36 54° WSW 01:59:02 10° S
CZ-2C R/B 3.1 01:50:31 10° NNE 01:56:01 87° WNW 02:00:50 12° SSW
CZ-2C R/B 2.9 01:51:20 11° S 01:56:17 52° W 02:01:34 10° NNW
Cosmos 1437 Rocket 2.6 01:53:28 14° S 01:56:39 89° W 02:00:28 10° NNE
CZ-2D R/B 2.2 01:53:38 10° NNE 01:58:59 73° WNW 02:03:47 13° SSW
FENGYUN 3A 3.7 01:55:55 10° NNE 02:01:20 82° ESE 02:06:43 10° SSW
Cosmos 1727 Rocket 4.2 01:58:17 10° NNW 02:04:31 62° W 02:10:45 10° S
CENTAUR R/B 3.8 02:00:48 10° W 02:06:33 39° NNW 02:13:35 10° NE
H-2A R/B 4.2 02:05:03 10° N 02:08:44 37° WNW 02:12:02 12° SW
Cosmos 2239 Rocket 4.5 02:02:45 10° S 02:08:55 87° W 02:15:06 10° N
Envisat 4.5 02:05:41 10° NNE 02:10:17 33° E 02:14:51 10° SSE
Cosmos 1048 Rocket 4.0 02:06:24 10° NNW 02:11:39 89° ENE 02:16:56 10° SSE
USA 238 DEB 3.7 02:06:34 12° SSW 02:12:20 72° SE 02:19:06 10° NE
USA 238 3.7 02:06:36 12° SSW 02:12:23 72° SE 02:19:09 10° NE
NPP 4.4 02:10:15 10° N 02:15:18 42° WNW 02:20:16 10° SW
ASTEX 1 3.4 02:15:49 10° S 02:20:39 69° W 02:25:32 10° N
Cosmos 1606 Rocket 3.7 02:18:13 10° NNW 02:22:35 57° W 02:26:54 10° S
Cosmos 1125 Rocket 4.3 02:18:13 10° S 02:23:16 49° ESE 02:28:24 10° NNE
Cosmos 1867 3.7 02:18:38 11° SSW 02:23:59 84° SE 02:29:31 10° NE
CZ-2C R/B 4.1 02:20:37 10° NE 02:24:31 27° E 02:28:24 10° SSE
Cosmos 921 Rocket 3.1 02:20:54 10° NNW 02:25:02 51° WSW 02:29:04 10° S
ADEOS II 2.3 02:20:56 10° N 02:26:08 63° WNW 02:31:17 10° SSW
BREEZE-M DEB (TANK) 4.4 02:21:56 10° SSW 02:27:50 22° SSE 02:30:36 10° ESE
Alouette 2 Rocket 3.8 02:23:25 10° S 02:28:04 65° ESE 02:31:43 10° NNE
Cosmos 494 Rocket 4.2 02:23:27 10° NNW 02:28:30 50° WSW 02:33:33 10° S
Cosmos 1844 3.8 02:28:19 10° SSW 02:34:05 88° SE 02:39:57 10° NNE
Cosmos 1238 Rocket 2.9 02:34:16 10° N 02:37:47 60° ENE 02:40:52 10° SSE
USA 81 4.1 02:32:52 10° N 02:38:10 83° W 02:43:26 10° S
Cosmos 1726 Rocket 3.8 02:33:51 10° NNW 02:38:11 52° W 02:42:27 10° S
Resurs 1-4 Rocket 3.1 02:34:03 10° N 02:38:45 34° WNW 02:43:27 10° SW
Cosmos 724 4.3 02:38:08 10° NW 02:43:55 71° WSW 02:49:44 10° SSE
Cosmos 2263 Rocket 4.0 02:42:53 10° W 02:47:03 21° NW 02:51:13 10° N
BREEZE M DEB (TANK) 4.0 02:46:31 10° WNW 02:58:43 81° SSW 03:02:23 10° ESE
